| time (UTC) | temp F | wind direction | speed MPH | gust MPH | rain 1hr in | rain 24hr in | rain mn in | humidity % | barometer mb |
| 20260503231845 | 56 | 64 | 0.0 | 0.0 | 0.00 | 0.00 | 0.00 | 37 | 1008.3 |
| 20260503231341 | 56 | 64 | 0.0 | 0.0 | 0.00 | 0.00 | 0.00 | 38 | 1008.2 |
| 20260503230837 | 56 | 62 | 0.0 | 0.0 | 0.00 | 0.00 | 0.00 | 38 | 1008.3 |
| 20260503230334 | 57 | 72 | 1.0 | 1.0 | 0.00 | 0.00 | 0.00 | 38 | 1008.3 |
| 20260503225833 | 57 | 57 | 0.0 | 0.0 | 0.00 | 0.00 | 0.00 | 37 | 1008.1 |
| 20260503225328 | 57 | 135 | 2.0 | 2.0 | 0.00 | 0.00 | 0.00 | 34 | 1008.0 |
| 20260503224824 | 57 | 1 | 1.0 | 1.0 | 0.00 | 0.00 | 0.00 | 37 | 1008.1 |
| 20260503224322 | 57 | 39 | 0.0 | 0.0 | 0.00 | 0.00 | 0.00 | 39 | 1008.2 |
| 20260503223820 | 57 | 26 | 2.0 | 2.0 | 0.00 | 0.00 | 0.00 | 34 | 1008.1 |
| 20260503223317 | 58 | 354 | 1.0 | 1.0 | 0.00 | 0.00 | 0.00 | 34 | 1008.1 |
| 20260503222812 | 58 | 28 | 2.0 | 2.0 | 0.00 | 0.00 | 0.00 | 33 | 1008.0 |
| 20260503222311 | 58 | 143 | 2.0 | 2.0 | 0.00 | 0.00 | 0.00 | 35 | 1007.9 |
| 20260503221809 | 58 | 66 | 0.0 | 0.0 | 0.00 | 0.00 | 0.00 | 34 | 1007.9 |
| 20260503221307 | 58 | 101 | 2.0 | 2.0 | 0.00 | 0.00 | 0.00 | 33 | 1008.0 |
| 20260503220803 | 58 | 46 | 1.0 | 1.0 | 0.00 | 0.00 | 0.00 | 35 | 1007.8 |
| 20260503220300 | 58 | 208 | 2.0 | 2.0 | 0.00 | 0.00 | 0.00 | 33 | 1007.8 |
| 20260503215756 | 58 | 65 | 0.0 | 0.0 | 0.00 | 0.00 | 0.00 | 33 | 1007.8 |
| 20260503215253 | 58 | 44 | 1.0 | 1.0 | 0.00 | 0.00 | 0.00 | 34 | 1008.0 |
| 20260503214752 | 58 | 158 | 3.0 | 3.0 | 0.00 | 0.00 | 0.00 | 32 | 1007.9 |
| 20260503214248 | 58 | 48 | 0.0 | 1.0 | 0.00 | 0.00 | 0.00 | 32 | 1008.1 |
| 20260503213746 | 58 | 46 | 0.0 | 0.0 | 0.00 | 0.00 | 0.00 | 34 | 1007.9 |
| 20260503213243 | 58 | 56 | 1.0 | 1.0 | 0.00 | 0.00 | 0.00 | 35 | 1008.1 |
| 20260503212740 | 58 | 326 | 2.0 | 2.0 | 0.00 | 0.00 | 0.00 | 33 | 1008.1 |
| 20260503212238 | 58 | 70 | 0.0 | 0.0 | 0.00 | 0.00 | 0.00 | 31 | 1008.0 |
| 20260503211735 | 58 | 108 | 2.0 | 2.0 | 0.00 | 0.00 | 0.00 | 34 | 1008.1 |
| 20260503211231 | 58 | 49 | 1.0 | 1.0 | 0.00 | 0.00 | 0.00 | 34 | 1008.1 |
| 20260503210727 | 58 | 3 | 1.0 | 2.0 | 0.00 | 0.00 | 0.00 | 31 | 1008.0 |
| 20260503210225 | 58 | 11 | 1.0 | 2.0 | 0.00 | 0.00 | 0.00 | 34 | 1008.0 |
| 20260503205719 | 57 | 179 | 3.0 | 5.0 | 0.00 | 0.00 | 0.00 | 37 | 1008.0 |
| 20260503205216 | 57 | 193 | 3.0 | 3.0 | 0.00 | 0.00 | 0.00 | 34 | 1008.2 |
| 20260503204712 | 58 | 233 | 3.0 | 3.0 | 0.00 | 0.00 | 0.00 | 33 | 1007.9 |
| 20260503204211 | 58 | 97 | 2.0 | 2.0 | 0.00 | 0.00 | 0.00 | 33 | 1007.9 |
| 20260503203707 | 59 | 230 | 2.0 | 3.0 | 0.00 | 0.00 | 0.00 | 32 | 1007.9 |
| 20260503203205 | 57 | 99 | 2.0 | 2.0 | 0.00 | 0.00 | 0.00 | 32 | 1007.9 |
| 20260503202702 | 58 | 46 | 1.0 | 1.0 | 0.00 | 0.00 | 0.00 | 32 | 1007.9 |
| 20260503202200 | 58 | 35 | 0.0 | 1.0 | 0.00 | 0.00 | 0.00 | 33 | 1007.9 |
| 20260503201657 | 58 | 337 | 2.0 | 2.0 | 0.00 | 0.00 | 0.00 | 32 | 1008.1 |
| 20260503201155 | 58 | 40 | 2.0 | 2.0 | 0.00 | 0.00 | 0.00 | 33 | 1008.0 |
| 20260503200651 | 57 | 119 | 3.0 | 3.0 | 0.00 | 0.00 | 0.00 | 34 | 1008.0 |
| 20260503200147 | 58 | 236 | 5.0 | 6.0 | 0.00 | 0.00 | 0.00 | 33 | 1008.3 |
| 20260503195644 | 57 | 272 | 3.0 | 3.0 | 0.00 | 0.00 | 0.00 | 33 | 1008.2 |
| 20260503195141 | 56 | 63 | 2.0 | 3.0 | 0.00 | 0.00 | 0.00 | 35 | 1008.2 |
| 20260503194638 | 57 | 42 | 2.0 | 2.0 | 0.00 | 0.00 | 0.00 | 34 | 1008.2 |
| 20260503194133 | 57 | 68 | 1.0 | 2.0 | 0.00 | 0.00 | 0.00 | 35 | 1008.2 |
| 20260503193631 | 57 | 358 | 2.0 | 3.0 | 0.00 | 0.00 | 0.00 | 34 | 1008.1 |
| 20260503193126 | 57 | 41 | 3.0 | 5.0 | 0.00 | 0.00 | 0.00 | 34 | 1008.3 |
| 20260503192622 | 57 | 311 | 2.0 | 6.0 | 0.00 | 0.00 | 0.00 | 35 | 1008.4 |
| 20260503192118 | 56 | 31 | 1.0 | 1.0 | 0.00 | 0.00 | 0.00 | 34 | 1008.5 |
| 20260503191615 | 57 | 80 | 1.0 | 1.0 | 0.00 | 0.00 | 0.00 | 37 | 1008.5 |
| 20260503191112 | 56 | 28 | 1.0 | 1.0 | 0.00 | 0.00 | 0.00 | 36 | 1008.5 |
| 20260503190609 | 57 | 319 | 3.0 | 3.0 | 0.00 | 0.00 | 0.00 | 35 | 1008.7 |
| 20260503190106 | 57 | 21 | 1.0 | 1.0 | 0.00 | 0.00 | 0.00 | 36 | 1008.5 |
| 20260503185603 | 57 | 15 | 2.0 | 2.0 | 0.00 | 0.00 | 0.00 | 34 | 1008.6 |
| 20260503185102 | 57 | 311 | 5.0 | 8.0 | 0.00 | 0.00 | 0.00 | 37 | 1008.7 |
| 20260503184558 | 57 | 2 | 2.0 | 2.0 | 0.00 | 0.00 | 0.00 | 37 | 1008.8 |
| 20260503184055 | 57 | 203 | 3.0 | 5.0 | 0.00 | 0.00 | 0.00 | 35 | 1008.8 |
| 20260503183551 | 56 | 180 | 5.0 | 6.0 | 0.00 | 0.00 | 0.00 | 38 | 1008.6 |
| 20260503183048 | 56 | 37 | 0.0 | 1.0 | 0.00 | 0.00 | 0.00 | 37 | 1008.8 |
| 20260503182547 | 57 | 338 | 2.0 | 3.0 | 0.00 | 0.00 | 0.00 | 34 | 1008.8 |
| 20260503182045 | 56 | 24 | 1.0 | 1.0 | 0.00 | 0.00 | 0.00 | 35 | 1008.9 |
| 20260503181541 | 55 | 13 | 4.0 | 5.0 | 0.00 | 0.00 | 0.00 | 37 | 1008.7 |
| 20260503181037 | 56 | 6 | 3.0 | 3.0 | 0.00 | 0.00 | 0.00 | 37 | 1008.7 |
| 20260503180535 | 55 | 287 | 3.0 | 5.0 | 0.00 | 0.00 | 0.00 | 40 | 1008.7 |
| 20260503180032 | 55 | 272 | 3.0 | 6.0 | 0.00 | 0.00 | 0.00 | 39 | 1008.9 |
| 20260503175530 | 54 | 89 | 1.0 | 2.0 | 0.00 | 0.00 | 0.00 | 43 | 1009.0 |
| 20260503175026 | 54 | 24 | 3.0 | 3.0 | 0.00 | 0.00 | 0.00 | 40 | 1008.9 |
| 20260503174524 | 55 | 78 | 2.0 | 2.0 | 0.00 | 0.00 | 0.00 | 39 | 1009.1 |
| 20260503174020 | 54 | 29 | 1.0 | 1.0 | 0.00 | 0.00 | 0.00 | 40 | 1009.0 |
| 20260503173515 | 53 | 48 | 2.0 | 3.0 | 0.00 | 0.00 | 0.00 | 41 | 1009.1 |
| 20260503173012 | 53 | 286 | 3.0 | 3.0 | 0.00 | 0.00 | 0.00 | 44 | 1009.3 |
| 20260503172510 | 53 | 356 | 4.0 | 6.0 | 0.00 | 0.00 | 0.00 | 42 | 1009.3 |
| 20260503172006 | 53 | 88 | 4.0 | 5.0 | 0.00 | 0.00 | 0.00 | 44 | 1009.3 |
| 20260503171503 | 52 | 111 | 5.0 | 6.0 | 0.00 | 0.00 | 0.00 | 42 | 1009.4 |
| 20260503171000 | 52 | 53 | 0.0 | 1.0 | 0.00 | 0.00 | 0.00 | 43 | 1009.3 |
| 20260503170456 | 52 | 337 | 3.0 | 3.0 | 0.00 | 0.00 | 0.00 | 47 | 1009.3 |
| 20260503150849 | 50 | 250 | 3.0 | 3.0 | 0.00 | 0.00 | 0.00 | 47 | 1009.9 |
| 20260503150345 | 49 | 70 | 2.0 | 3.0 | 0.00 | 0.00 | 0.00 | 46 | 1010.0 |
| 20260503140309 | 51 | 45 | 1.0 | 1.0 | 0.00 | 0.00 | 0.00 | 48 | 1009.9 |
| 20260503131238 | 50 | 197 | 3.0 | 3.0 | 0.00 | 0.00 | 0.00 | 52 | 1010.0 |
| 20260503130736 | 50 | 88 | 2.0 | 2.0 | 0.00 | 0.00 | 0.00 | 55 | 1009.8 |
| 20260503130233 | 48 | 47 | 1.0 | 1.0 | 0.00 | 0.00 | 0.00 | 56 | 1009.7 |
| 20260503120159 | 44 | 67 | 1.0 | 2.0 | 0.00 | 0.00 | 0.00 | 63 | 1010.0 |
| 20260503110627 | 43 | 65 | 1.0 | 1.0 | 0.00 | 0.00 | 0.00 | 64 | 1009.3 |
| 20260503110124 | 43 | 84 | 2.0 | 2.0 | 0.00 | 0.00 | 0.00 | 66 | 1009.5 |
| 20260503081440 | 45 | 42 | 1.0 | 2.0 | 0.00 | 0.00 | 0.00 | 61 | 1008.1 |
| 20260503080937 | 45 | 68 | 0.0 | 0.0 | 0.00 | 0.00 | 0.00 | 60 | 1008.0 |
| 20260503080433 | 45 | 68 | 0.0 | 0.0 | 0.00 | 0.00 | 0.00 | 59 | 1008.0 |
| 20260503072910 | 45 | 111 | 2.0 | 2.0 | 0.00 | 0.00 | 0.00 | 59 | 1008.1 |
| 20260503072407 | 46 | 67 | 1.0 | 1.0 | 0.00 | 0.00 | 0.00 | 58 | 1008.1 |
| 20260503071904 | 46 | 81 | 2.0 | 2.0 | 0.00 | 0.00 | 0.00 | 58 | 1007.9 |
| 20260503071401 | 46 | 69 | 0.0 | 0.0 | 0.00 | 0.00 | 0.00 | 57 | 1008.0 |
| 20260503070856 | 46 | 74 | 1.0 | 1.0 | 0.00 | 0.00 | 0.00 | 56 | 1008.1 |
| 20260503070355 | 46 | 65 | 0.0 | 0.0 | 0.00 | 0.00 | 0.00 | 59 | 1008.0 |
| 20260503060320 | 47 | 65 | 0.0 | 0.0 | 0.00 | 0.00 | 0.00 | 57 | 1008.3 |
| 20260503054808 | 47 | 53 | 0.0 | 0.0 | 0.00 | 0.00 | 0.00 | 58 | 1008.3 |
| 20260503054304 | 48 | 67 | 0.0 | 1.0 | 0.00 | 0.00 | 0.00 | 57 | 1008.4 |
| 20260503053802 | 48 | 67 | 0.0 | 0.0 | 0.00 | 0.00 | 0.00 | 55 | 1008.5 |
| 20260503053300 | 48 | 68 | 0.0 | 0.0 | 0.00 | 0.00 | 0.00 | 54 | 1008.4 |
| 20260503052756 | 48 | 68 | 0.0 | 0.0 | 0.00 | 0.00 | 0.00 | 52 | 1008.2 |
| 20260503052253 | 48 | 66 | 0.0 | 0.0 | 0.00 | 0.00 | 0.00 | 54 | 1008.3 |
| 20260503051748 | 48 | 65 | 0.0 | 0.0 | 0.00 | 0.00 | 0.00 | 52 | 1008.3 |
| 20260503051246 | 48 | 65 | 0.0 | 0.0 | 0.00 | 0.00 | 0.00 | 52 | 1008.5 |
| 20260503050742 | 48 | 67 | 1.0 | 1.0 | 0.00 | 0.00 | 0.00 | 56 | 1008.5 |
| 20260503050238 | 48 | 60 | 0.0 | 0.0 | 0.00 | 0.00 | 0.00 | 54 | 1008.8 |
| 20260503045736 | 48 | 88 | 1.0 | 2.0 | 0.00 | 0.00 | 0.00 | 55 | 1008.8 |
| 20260503045234 | 48 | 75 | 0.0 | 0.0 | 0.00 | 0.00 | 0.00 | 54 | 1008.7 |
| 20260503044730 | 47 | 66 | 0.0 | 0.0 | 0.00 | 0.00 | 0.00 | 57 | 1008.8 |
| 20260503044227 | 47 | 66 | 0.0 | 0.0 | 0.00 | 0.00 | 0.00 | 57 | 1008.6 |
| 20260503043724 | 47 | 66 | 0.0 | 0.0 | 0.00 | 0.00 | 0.00 | 58 | 1008.7 |
| 20260503043222 | 47 | 66 | 0.0 | 0.0 | 0.00 | 0.00 | 0.00 | 57 | 1008.9 |
| 20260503042717 | 48 | 66 | 0.0 | 0.0 | 0.00 | 0.00 | 0.00 | 58 | 1009.0 |
| 20260503042214 | 48 | 66 | 0.0 | 0.0 | 0.00 | 0.00 | 0.00 | 53 | 1008.9 |
| 20260503041710 | 48 | 66 | 0.0 | 0.0 | 0.00 | 0.00 | 0.00 | 54 | 1008.8 |
| 20260503041208 | 48 | 66 | 0.0 | 0.0 | 0.00 | 0.00 | 0.00 | 56 | 1008.7 |
| 20260503040705 | 48 | 66 | 0.0 | 0.0 | 0.00 | 0.00 | 0.00 | 54 | 1008.9 |
| 20260503040203 | 48 | 66 | 0.0 | 0.0 | 0.00 | 0.00 | 0.00 | 51 | 1008.9 |
| 20260503035659 | 49 | 67 | 1.0 | 1.0 | 0.00 | 0.00 | 0.00 | 53 | 1008.7 |
| 20260503035157 | 48 | 66 | 1.0 | 1.0 | 0.00 | 0.00 | 0.00 | 53 | 1008.9 |
| 20260503034654 | 49 | 65 | 0.0 | 0.0 | 0.00 | 0.00 | 0.00 | 54 | 1008.7 |
| 20260503034151 | 49 | 64 | 0.0 | 0.0 | 0.00 | 0.00 | 0.00 | 54 | 1008.6 |
| 20260503033648 | 49 | 65 | 0.0 | 0.0 | 0.00 | 0.00 | 0.00 | 51 | 1008.6 |
| 20260503033146 | 49 | 100 | 2.0 | 2.0 | 0.00 | 0.00 | 0.00 | 50 | 1008.7 |
| 20260503032644 | 49 | 73 | 0.0 | 0.0 | 0.00 | 0.00 | 0.00 | 51 | 1008.4 |
| 20260503032143 | 50 | 70 | 0.0 | 1.0 | 0.00 | 0.00 | 0.00 | 49 | 1008.4 |
| 20260503031639 | 50 | 66 | 0.0 | 0.0 | 0.00 | 0.00 | 0.00 | 48 | 1008.8 |
| 20260503031137 | 50 | 75 | 1.0 | 1.0 | 0.00 | 0.00 | 0.00 | 49 | 1008.6 |
| 20260503030633 | 49 | 72 | 0.0 | 1.0 | 0.00 | 0.00 | 0.00 | 47 | 1008.7 |
| 20260503030130 | 49 | 73 | 0.0 | 0.0 | 0.00 | 0.00 | 0.00 | 56 | 1008.7 |
| 20260503025626 | 49 | 92 | 2.0 | 2.0 | 0.00 | 0.00 | 0.00 | 50 | 1008.9 |
| 20260503025124 | 49 | 60 | 0.0 | 0.0 | 0.00 | 0.00 | 0.00 | 53 | 1008.5 |
| 20260503024620 | 50 | 75 | 1.0 | 1.0 | 0.00 | 0.00 | 0.00 | 52 | 1008.7 |
| 20260503024118 | 50 | 73 | 0.0 | 1.0 | 0.00 | 0.00 | 0.00 | 49 | 1008.7 |
| 20260503023615 | 50 | 73 | 0.0 | 0.0 | 0.00 | 0.00 | 0.00 | 50 | 1008.8 |
| 20260503023112 | 50 | 65 | 0.0 | 1.0 | 0.00 | 0.00 | 0.00 | 51 | 1008.6 |
| 20260503022607 | 50 | 74 | 0.0 | 1.0 | 0.00 | 0.00 | 0.00 | 48 | 1008.7 |
| 20260503022102 | 50 | 73 | 0.0 | 0.0 | 0.00 | 0.00 | 0.00 | 51 | 1008.8 |
| 20260503021600 | 50 | 75 | 1.0 | 1.0 | 0.00 | 0.00 | 0.00 | 52 | 1008.8 |
| 20260503021056 | 50 | 61 | 0.0 | 0.0 | 0.00 | 0.00 | 0.00 | 51 | 1008.7 |
| 20260503020553 | 50 | 76 | 2.0 | 2.0 | 0.00 | 0.00 | 0.00 | 50 | 1008.6 |
| 20260503020050 | 51 | 74 | 0.0 | 1.0 | 0.00 | 0.00 | 0.00 | 54 | 1008.9 |
| 20260503015547 | 51 | 74 | 0.0 | 0.0 | 0.00 | 0.00 | 0.00 | 51 | 1008.8 |
| 20260503015044 | 51 | 74 | 0.0 | 0.0 | 0.00 | 0.00 | 0.00 | 51 | 1008.9 |
| 20260503014540 | 51 | 74 | 0.0 | 0.0 | 0.00 | 0.00 | 0.00 | 50 | 1008.8 |
| 20260503014038 | 51 | 78 | 1.0 | 1.0 | 0.00 | 0.00 | 0.00 | 52 | 1009.0 |
| 20260503013535 | 51 | 72 | 0.0 | 0.0 | 0.00 | 0.00 | 0.00 | 50 | 1008.8 |
| 20260503013033 | 51 | 72 | 0.0 | 0.0 | 0.00 | 0.00 | 0.00 | 50 | 1009.0 |
| 20260503012530 | 51 | 72 | 0.0 | 0.0 | 0.00 | 0.00 | 0.00 | 50 | 1009.0 |
| 20260503012026 | 51 | 72 | 0.0 | 0.0 | 0.00 | 0.00 | 0.00 | 51 | 1008.9 |
| 20260503011523 | 51 | 72 | 0.0 | 0.0 | 0.00 | 0.00 | 0.00 | 48 | 1008.7 |
| 20260503011021 | 52 | 72 | 0.0 | 0.0 | 0.00 | 0.00 | 0.00 | 50 | 1008.7 |
| 20260503010516 | 52 | 72 | 0.0 | 0.0 | 0.00 | 0.00 | 0.00 | 52 | 1008.7 |
| 20260503010015 | 52 | 72 | 1.0 | 1.0 | 0.00 | 0.00 | 0.00 | 50 | 1008.8 |
| 20260503005511 | 52 | 72 | 0.0 | 0.0 | 0.00 | 0.00 | 0.00 | 50 | 1008.5 |
| 20260503005008 | 52 | 72 | 0.0 | 0.0 | 0.00 | 0.00 | 0.00 | 49 | 1008.4 |
| 20260503004504 | 52 | 72 | 0.0 | 0.0 | 0.00 | 0.00 | 0.00 | 46 | 1008.3 |
| 20260503004003 | 53 | 72 | 0.0 | 0.0 | 0.00 | 0.00 | 0.00 | 48 | 1008.3 |
| 20260503003459 | 53 | 72 | 0.0 | 0.0 | 0.00 | 0.00 | 0.00 | 47 | 1008.2 |
| 20260503002956 | 53 | 72 | 0.0 | 0.0 | 0.00 | 0.00 | 0.00 | 46 | 1008.1 |
| 20260503002453 | 53 | 71 | 0.0 | 0.0 | 0.00 | 0.00 | 0.00 | 46 | 1008.2 |
| 20260503001949 | 53 | 72 | 0.0 | 1.0 | 0.00 | 0.00 | 0.00 | 45 | 1007.9 |
| 20260503001446 | 53 | 71 | 0.0 | 0.0 | 0.00 | 0.00 | 0.00 | 49 | 1008.2 |
| 20260503000944 | 53 | 72 | 0.0 | 0.0 | 0.00 | 0.00 | 0.00 | 44 | 1008.2 |
| 20260503000440 | 54 | 64 | 0.0 | 0.0 | 0.00 | 0.00 | 0.00 | 46 | 1008.0 |
| 20260502235938 | 54 | 64 | 0.0 | 0.0 | 0.00 | 0.00 | 0.00 | 45 | 1007.9 |
| 20260502235435 | 54 | 71 | 1.0 | 1.0 | 0.00 | 0.00 | 0.00 | 42 | 1007.8 |
| 20260502234932 | 55 | 97 | 1.0 | 2.0 | 0.00 | 0.00 | 0.00 | 44 | 1008.2 |
| 20260502234428 | 55 | 77 | 1.0 | 1.0 | 0.00 | 0.00 | 0.00 | 42 | 1008.0 |
| 20260502233926 | 55 | 65 | 0.0 | 0.0 | 0.00 | 0.00 | 0.00 | 45 | 1008.0 |
| 20260502233420 | 55 | 69 | 0.0 | 1.0 | 0.00 | 0.00 | 0.00 | 43 | 1008.1 |
| 20260502232918 | 55 | 125 | 2.0 | 3.0 | 0.00 | 0.00 | 0.00 | 43 | 1008.0 |
| 20260502232414 | 55 | 110 | 2.0 | 2.0 | 0.00 | 0.00 | 0.00 | 42 | 1007.8 |